Regional Weather Roundup
Issued by NWS Upton, NY

Current Version | Previous Version | Text Only | Print | Product List | Glossary On
Versions: 1 2 3 4 5 6 7 8 9 10 11 12 13 14 15 16 17 18 19 20 21 22 23 24 25 26 27 28 29 30 31 32 33 34 35 36 37 38 39 40 41 42 43 44 45 46 47 48 49 50
000 ASUS41 KOKX 210105 RWROKX REGIONAL WEATHER ROUNDUP NATIONAL WEATHER SERVICE NEW YORK NY 800 PM EST SAT DEC 20 2014 NOTE: "FAIR" INDICATES FEW OR NO CLOUDS BELOW 12,000 FEET WITH NO SIGNIFICANT WEATHER AND/OR OBSTRUCTIONS TO VISIBILITY. NYZ071-072-176-178-NJZ106-104-210200- NEW YORK CITY METRO AREA CITY SKY/WX TMP DP RH WIND PRES REMARKS CENTRAL PARK CLOUDY 32 20 61 VRB7 30.30S WCI 26 LAGUARDIA APRT CLOUDY 32 22 66 NE7 30.28F WCI 26 KENNEDY INTL CLOUDY 34 21 59 N7 30.29F WCI 28 NEWARK/LIBERTY CLOUDY 33 21 61 N9 30.29S WCI 25 BRNX BOT. GARD N/A N/A N/A N/A NE2 30.29F TETERBORO CLOUDY 33 20 58 NE5 30.28F WCI 29 $$ NYZ177-179-078>081-210200- LONG ISLAND NEW YORK CITY SKY/WX TMP DP RH WIND PRES REMARKS FARMINGDALE CLOUDY 33 22 63 N5 30.28S WCI 29 ISLIP CLOUDY 33 23 66 NW3 30.26F SHIRLEY CLOUDY 33 25 72 CALM 30.28F WESTHAMPTON CLOUDY 32 27 81 NW3 30.29S MONTAUK POINT N/A 37 29 72 NE7 30.27F WCI 32 $$ NYZ052-065-067-210200- HUDSON VALLEY CITY SKY/WX TMP DP RH WIND PRES REMARKS WHITE PLAINS CLOUDY 30 20 66 N5 30.26S WCI 25 NEWBURGH CLOUDY 28 23 80 VRB3 30.29S MONTGOMERY CLOUDY 29 22 75 N5 30.27F WCI 24 POUGHKEEPSIE CLOUDY 30 20 66 CALM 30.29F ALBANY CLOUDY 28 20 71 N3 30.31F $$ NJZ001-105-106-008-010-013-015-019>022-104-210200- NEW JERSEY CITY SKY/WX TMP DP RH WIND PRES REMARKS NEWARK/LIBERTY CLOUDY 33 21 61 N9 30.29S WCI 25 TETERBORO CLOUDY 33 20 58 NE5 30.28F WCI 29 CALDWELL CLOUDY 31 21 66 NE3 30.29S MORRISTOWN CLOUDY 32 23 69 NW3 30.29F SOMERVILLE CLOUDY 32 21 64 NW5 30.28S WCI 27 SUSSEX CLOUDY 30 21 69 NE3 30.27S ANDOVER N/A 29 20 69 N3 30.27S TRENTON CLOUDY 31 21 66 CALM 30.28S MILLVILLE CLEAR 23 21 92 CALM 30.30R ATLANTIC CITY PTCLDY 30 21 69 W3 30.30R WRIGHTSTOWN CLEAR 28 21 75 NE2 30.26F TOMS RIVER CLOUDY 30 21 69 CALM 30.30R BELMAR MOCLDY 30 18 59 NW5 30.28S WCI 25 $$ PAZ047>061-062-071-210200- EASTERN PENNSYLVANIA CITY SKY/WX TMP DP RH WIND PRES REMARKS PHILADELPHIA CLOUDY 35 21 56 W7 30.31R WCI 29 ALLENTOWN CLOUDY 32 24 72 CALM 30.28R SCRANTON CLOUDY 30 20 66 NW5 30.25R WCI 25 $$ CTZ002-004>006-009-010-012-RIZ004-006-007-MAZ004-011-015-210200- SOUTHERN NEW ENGLAND IN CT CITY SKY/WX TMP DP RH WIND PRES REMARKS BRADLEY INTL CLOUDY 31 22 69 N3 30.28S HARTFORD CLOUDY 31 22 69 VRB3 30.29F DANBURY CLOUDY 29 21 72 CALM 30.27F WTRBRY/OXFORD CLOUDY 28 19 69 CALM 30.25F BRIDGEPORT CLOUDY 32 28 85 N5 30.28F WCI 27 MERIDEN CLOUDY 31 22 69 CALM 30.28F NEW HAVEN CLOUDY 34 24 67 NW3 30.27F CHESTER CLOUDY 32 25 74 N3 30.26F GROTON CLOUDY 34 27 75 N6 30.27S WCI 29 WILLIMANTIC CLOUDY 33 25 72 N8 30.28F WCI 26 IN RI CITY SKY/WX TMP DP RH WIND PRES REMARKS PROVIDENCE LGT SNOW 31 28 89 N10 30.29S FOG WCI 22 BLOCK ISLAND CLOUDY 36 28 75 N9 30.24F WCI 29 WESTERLY CLOUDY 34 27 75 N6 30.27S WCI 29 IN MA CITY SKY/WX TMP DP RH WIND PRES REMARKS BOSTON FLURRIES 35 29 78 N13 30.31R WCI 26 WORCESTER LGT SNOW 28 24 85 VRB6 30.26R FOG WCI 22 WESTFIELD CLOUDY 33 21 61 NE5 30.28S WCI 29 PROVINCETOWN CLOUDY 39 32 75 NE14G21 30.29R WCI 31 NANTUCKET LGT RAIN 41 36 82 NE6 30.24S $$ ANZ330-335-338-340-345-350-353-355-210200- COASTAL MARINE OBSERVATIONS STATION/POSITION TIME SKY/WX TEMP WIND PRES VSBY WAVE AIR SEA DIR/SP/G HT/PER (UTC) (F) (DEG/KT/KT) (MB) (MI) (FT/S) NY HARB ENTRANCE 0100 34 46 330/ 4/ 8 1025.8 1/11 4S FIRE IS 0100 45 N/A 1/11 20S FIRE ISLAND 0000 36 49 1025.8 1/11 23SW MTP 0100 N/A 2/ 5 HUDSON CANYON 0100 39 54 340/ 12/ 16 1024.2 2/ 4 EXECUTION ROCKS 0100 33 41 360/ 6/ 10 N/A WESTERN LI SOUND 0100 33 350/ 6/ 8 N/A 0 CENTRAL LI SOUND 0000 34 44 360/ 8/ 10 N/A 0 EASTERN LI SOUND NOT AVBL ROBBINS REEF 0100 33 280/ 6/ 8 1024.3 $$ >>>>>>>>>>>>>>>>>>>>>>>>>>>> KEY <<<<<<<<<<<<<<<<<<<<<<<<<<< > < > SKY/WX - SKY CONDITION/PRESENT WEATHER < > TMP - TEMPERATURE IN FAHRENHEIT < > DP - DEWPOINT IN FAHRENHEIT < > RH - RELATIVE HUMIDITY IN PERCENT < > WIND - DIRECTION AND SPEED IN MPH < > PRES - MEAN SEA LEVEL PRESSURE IN INCHES OF HG < > WCI - WIND CHILL INDEX < > VSB - VISIBILITY IN MILES < > HX - HEAT INDEX < > TC - TEMPERATURE IN CELSIUS < > VRB - VARIABLE WIND DIRECTION < > < >>>>>>>>>>>>>>>>>>>>>>>>>>>> KEY <<<<<<<<<<<<<<<<<<<<<<<<<<<

USA.gov is the U.S. government's official web portal to all federal, state and local government web resources and services.